CAPE
0 0 7 0 0 3 0 20 155 15 39 37 756 672 545 514 401 187 48 14 466 1403 1773 2027 2190 2171 2128 2027 1752 1066 1238 1403 1396 1464 1786 2024 2126 2092 1879 1608 1144 963 765 243
5 12 4 2 0 3 0 0 75 175 381 517 1011 1014 766 769 739 611 385 944 2028 1943 1758 1554 1678 1882 2146 1952 1943 1853 1504 1573 1668 1781 1959 1940 1645 1352 1116 602 520 146 261 498
50 0 0 0 0 14 138 112 402 82 153 837 1149 1490 1691 1528 1479 1595 1737 1624 1636 1775 1814 1679 1655 1740 1969 1882 1926 2051 2041 1863 1780 1415 1311 1230 1046 879 976 878 847 874 756 489
0 0 0 0 244 293 344 424 489 594 706 1112 1304 1546 1662 1612 1530 1412 1500 1717 1490 820 686 728 1303 1500 1562 1661 1643 1554 1371 1208 1093 1063 954 1124 924 787 709 774 617 471 418 478
0 0 0 223 217 357 348 390 519 711 971 1130 1005 995 972 1093 1251 916 1195 536 288 361 487 557 707 1265 1238 1262 1242 1281 1294 1255 1273 1263 1196 932 542 578 554 443 404 315 242 205
0 0 0 0 264 280 132 176 306 345 987 1074 814 823 932 921 935 904 446 271 249 394 338 441 549 852 1050 1199 1092 900 835 928 916 763 475 508 710 766 701 511 289 302 70 46
0 0 2 0 208 174 143 15 80 213 688 753 674 717 694 689 760 536 283 274 338 261 407 562 498 598 277 286 366 790 925 943 1142 833 630 721 675 685 561 345 133 161 80 20
0 0 4 62 260 169 7 28 39 162 387 672 580 543 691 648 572 351 293 300 267 278 399 620 624 336 199 424 981 1166 987 1016 944 828 747 566 489 440 378 418 62 48 69 6
29 5 9 223 91 42 208 246 127 127 175 209 486 562 576 503 385 310 248 249 188 267 408 600 545 183 56 606 1153 1066 935 1007 819 427 501 517 294 260 17 64 9 0 0 0
175 350 305 95 32 11 140 150 40 93 70 85 252 426 450 448 401 245 197 191 158 267 452 537 472 432 321 674 1137 923 668 606 675 348 241 351 172 61 42 0 0 0 0 0
310 501 505 271 68 83 159 159 113 56 117 255 289 240 450 622 412 119 184 236 266 299 422 530 671 725 646 806 956 1157 903 811 843 841 675 362 192 255 235 71 0 0 0 0
481 476 416 488 367 233 409 276 143 128 33 61 183 105 428 608 265 76 197 319 297 354 539 681 760 848 910 955 967 1179 1046 1080 1090 1154 1039 719 488 370 0 0 0 0 0 0
358 249 287 381 353 280 446 293 169 88 166 86 311 228 385 437 413 232 230 350 355 415 489 756 975 1055 1086 1159 1201 1237 1134 1237 1146 478 348 274 476 451 381 59 0 0 0 0
143 136 465 402 385 403 429 291 213 61 104 78 206 320 335 363 490 394 379 294 335 446 744 933 1035 1183 1244 1405 1450 1476 1333 1366 1111 782 522 503 183 209 272 181 35 13 0 0
230 251 369 332 393 418 369 291 271 191 26 0 27 159 29 350 737 539 403 408 502 705 858 696 664 704 1057 1399 1392 1301 1401 1235 1023 870 644 245 252 139 204 165 22 75 12 2
74 113 193 329 343 349 417 392 264 169 114 194 354 491 422 467 633 615 446 691 731 625 500 585 625 851 916 972 1046 1080 848 499 537 592 256 223 135 187 359 28 10 69 60 43
21 41 49 130 155 334 391 449 283 150 160 213 231 301 349 420 621 579 604 526 445 330 240 346 401 689 737 554 344 388 242 556 395 597 356 0 28 68 134 0 0 0 37 113
131 0 0 57 24 94 330 525 390 279 188 124 173 270 422 560 571 525 444 338 225 143 159 200 249 416 585 585 539 476 436 444 26 0 0 179 257 83 0 0 0 0 0 0
0 0 0 0 0 0 0 22 107 98 80 71 169 283 446 511 507 437 377 295 231 232 276 337 455 555 509 625 667 591 593 120 0 0 7 23 11 5 0 0 0 0 0 0
0 0 0 0 0 0 0 0 0 9 36 78 261 271 419 456 379 465 380 293 250 248 287 422 367 406 431 501 384 236 81 13 0 0 0 65 65 0 0 0 0 0 0 0
13 0 20 75 80 62 57 103 115 13 47 130 144 214 308 320 382 410 334 359 357 326 348 384 431 457 514 521 419 268 119 0 0 0 0 0 0 0 0 0 0 0 0 0
58 58 84 125 162 179 147 166 261 183 157 217 271 337 351 389 312 336 345 408 344 371 462 520 568 532 491 434 435 132 0 0 0 0 0 0 0 0 0 0 0 0 0 0
118 147 148 181 200 240 274 253 281 387 358 400 416 417 488 490 420 392 482 500 440 390 539 687 776 709 639 479 438 123 0 0 0 0 0 0 0 0 0 0 0 0 0 0
112 119 144 155 179 274 294 344 347 353 453 642 700 613 531 558 613 567 505 567 702 683 636 780 814 808 511 556 515 325 77 0 0 0 0 0 0 0 0 0 0 0 0 0
252 217 227 286 337 408 471 459 433 413 365 215 159 156 192 276 553 277 278 312 321 432 594 499 480 488 484 708 666 457 293 36 0 0 0 0 0 0 0 0 0 0 0 0
84 213 204 290 310 258 186 214 255 68 15 0 0 0 0 0 0 0 0 0 78 173 207 169 156 80 58 274 444 407 247 28 0 0 0 0 0 0 0 0 0 0 0 0
0 0 0 0 0 1 1 3 0 0 0 0 0 0 0 0 0 0 0 0 13 43 58 82 47 19 21 23 58 83 23 0 0 0 0 0 0 0 0 0 0 0 0 0
CIN
-0 -0 -109 -0 -0 -58 -0 -88 -46 -44 -109 -168 -171 -142 -126 -151 -134 -134 -218 -167 -184 -136 -127 -103 -98 -113 -136 -154 -171 -203 -204 -168 -139 -126 -114 -104 -90 -78 -78 -98 -155 -146 -130 -150
-41 -95 -104 -99 -0 -59 -0 -2 -102 -111 -91 -262 -227 -183 -161 -124 -106 -102 -140 -145 -107 -90 -90 -101 -95 -99 -93 -107 -126 -151 -190 -178 -156 -132 -120 -116 -95 -125 -146 -194 -187 -265 -232 -163
-31 -0 -0 -0 -13 -175 -177 -242 -185 -46 -113 -227 -182 -130 -100 -107 -93 -92 -108 -115 -95 -68 -52 -45 -59 -72 -70 -81 -87 -80 -107 -139 -155 -175 -124 -122 -132 -161 -138 -128 -122 -97 -83 -92
-0 -0 -0 -0 -267 -255 -192 -214 -215 -181 -206 -187 -159 -131 -118 -134 -128 -130 -125 -117 -118 -144 -134 -141 -60 -37 -51 -60 -74 -88 -108 -130 -152 -149 -159 -128 -135 -132 -130 -108 -119 -134 -116 -80
-0 -0 -0 -127 -159 -113 -99 -109 -213 -150 -205 -186 -165 -124 -121 -138 -113 -126 -119 -164 -174 -155 -146 -141 -114 -59 -60 -55 -62 -69 -77 -92 -87 -83 -84 -101 -141 -132 -137 -147 -140 -143 -151 -155
-0 -0 -0 -0 -154 -270 -179 -47 -202 -152 -146 -164 -166 -100 -109 -179 -147 -149 -179 -177 -166 -145 -163 -153 -143 -105 -77 -63 -64 -93 -109 -95 -108 -131 -159 -139 -106 -94 -96 -112 -151 -131 -262 -324
-0 -0 -12 -0 -216 -313 -54 -75 -232 -211 -192 -218 -136 -156 -210 -244 -177 -190 -188 -176 -160 -146 -113 -111 -169 -155 -288 -279 -207 -131 -111 -109 -78 -100 -111 -87 -81 -84 -85 -115 -191 -184 -235 -336
-0 -0 -30 -282 -232 -144 -46 -254 -235 -214 -222 -229 -290 -275 -204 -205 -189 -201 -172 -185 -160 -133 -113 -97 -120 -218 -315 -205 -103 -86 -96 -80 -78 -78 -73 -90 -94 -102 -111 -89 -213 -223 -213 -142
-61 -74 -158 -191 -153 -350 -248 -198 -292 -302 -443 -375 -271 -243 -196 -164 -211 -179 -194 -173 -163 -146 -112 -101 -136 -297 -392 -145 -91 -92 -90 -72 -80 -125 -90 -86 -147 -130 -329 -226 -303 -0 -35 -0
-86 -111 -126 -206 -379 -355 -237 -225 -420 -433 -420 -367 -242 -234 -192 -195 -192 -208 -229 -153 -151 -144 -97 -105 -150 -203 -245 -141 -88 -87 -96 -105 -80 -137 -166 -122 -194 -282 -294 -0 -0 -0 -0 -0
-99 -162 -150 -208 -233 -190 -259 -354 -416 -482 -373 -276 -267 -273 -199 -174 -177 -212 -169 -162 -133 -102 -105 -99 -121 -113 -132 -94 -82 -52 -65 -66 -50 -45 -51 -95 -180 -186 -149 -288 -0 -0 -0 -0
-33 -88 -68 -63 -163 -271 -189 -226 -292 -315 -392 -432 -353 -284 -232 -185 -200 -230 -183 -153 -143 -122 -83 -101 -106 -74 -69 -70 -60 -37 -45 -43 -39 -39 -42 -48 -68 -95 -0 -0 -0 -0 -0 -0
-51 -116 -104 -102 -192 -279 -158 -212 -286 -341 -286 -361 -318 -265 -226 -203 -201 -196 -224 -188 -115 -95 -114 -88 -83 -57 -49 -33 -29 -24 -26 -30 -33 -90 -109 -123 -65 -61 -61 -104 -0 -0 -0 -0
-180 -159 -90 -122 -94 -173 -147 -216 -249 -395 -376 -287 -314 -264 -227 -209 -193 -156 -157 -191 -130 -112 -93 -93 -68 -29 -29 -22 -19 -18 -24 -31 -36 -49 -90 -78 -142 -129 -125 -137 -253 -293 -0 -0
-140 -119 -63 -99 -139 -143 -213 -228 -177 -167 -344 -0 -481 -319 -331 -162 -97 -126 -190 -182 -125 -93 -91 -92 -77 -72 -51 -28 -21 -23 -19 -24 -40 -52 -81 -165 -157 -198 -150 -171 -299 -215 -261 -63
-166 -135 -113 -102 -117 -157 -177 -185 -164 -214 -251 -217 -203 -173 -206 -188 -171 -183 -211 -125 -82 -85 -93 -89 -90 -53 -61 -50 -38 -39 -57 -140 -122 -94 -178 -156 -187 -145 -90 -286 -332 -193 -159 -166
-125 -120 -148 -132 -138 -151 -143 -157 -174 -206 -205 -197 -190 -217 -241 -229 -222 -193 -151 -120 -99 -145 -194 -146 -124 -79 -70 -118 -189 -180 -227 -109 -149 -86 -133 -0 -326 -250 -176 -0 -0 -0 -188 -156
-69 -0 -0 -115 -172 -166 -153 -148 -183 -203 -185 -209 -247 -228 -189 -173 -160 -164 -117 -162 -237 -258 -219 -190 -171 -120 -89 -106 -118 -139 -149 -117 -116 -0 -0 -180 -107 -231 -0 -0 -0 -0 -0 -0
-0 -0 -0 -0 -0 -0 -0 -101 -234 -239 -258 -262 -222 -177 -130 -139 -129 -121 -166 -197 -209 -176 -121 -120 -90 -80 -95 -93 -87 -100 -85 -242 -0 -0 -195 -176 -220 -350 -0 -0 -0 -0 -0 -0
-0 -0 -0 -0 -0 -0 -0 -0 -0 -302 -283 -230 -182 -168 -122 -116 -140 -146 -172 -170 -161 -122 -99 -84 -125 -127 -111 -104 -158 -210 -312 -409 -0 -0 -0 -263 -259 -3 -0 -0 -0 -0 -0 -0
-202 -0 -230 -202 -202 -204 -200 -193 -161 -220 -245 -216 -158 -134 -105 -139 -171 -156 -156 -119 -92 -104 -89 -87 -96 -89 -103 -101 -147 -203 -286 -0 -0 -0 -0 -0 -0 -0 -0 -0 -0 -0 -0 -0
-223 -211 -200 -199 -182 -193 -216 -209 -158 -205 -229 -227 -203 -160 -154 -154 -172 -152 -115 -52 -60 -89 -84 -67 -72 -74 -86 -123 -130 -252 -0 -0 -0 -0 -0 -0 -0 -0 -0 -0 -0 -0 -0 -0
-190 -175 -165 -180 -176 -189 -215 -191 -178 -159 -173 -185 -152 -140 -113 -98 -109 -93 -58 -79 -97 -105 -66 -51 -50 -58 -72 -106 -117 -210 -0 -0 -0 -0 -0 -0 -0 -0 -0 -0 -0 -0 -0 -0
-196 -187 -179 -230 -244 -189 -162 -200 -209 -212 -201 -187 -163 -154 -124 -82 -105 -156 -153 -107 -80 -75 -79 -47 -62 -60 -103 -86 -85 -123 -222 -0 -0 -0 -0 -0 -0 -0 -0 -0 -0 -0 -0 -0
-155 -188 -207 -181 -160 -169 -190 -222 -214 -239 -236 -296 -338 -356 -271 -240 -121 -222 -216 -196 -174 -123 -91 -111 -115 -123 -153 -108 -104 -96 -108 -236 -0 -0 -0 -0 -0 -0 -0 -0 -0 -0 -0 -0
-414 -231 -246 -196 -179 -246 -297 -283 -248 -391 -233 -0 -0 -0 -0 -0 -0 -0 -0 -33 -329 -236 -217 -225 -203 -231 -235 -171 -151 -124 -114 -175 -0 -0 -0 -0 -0 -0 -0 -0 -0 -0 -0 -0
-0 -0 -0 -0 -116 -116 -115 -126 -0 -0 -0 -0 -0 -0 -0 -0 -0 -0 -0 -0 -439 -384 -367 -335 -354 -356 -323 -299 -268 -247 -203 -0 -0 -0 -0 -0 -0 -0 -0 -0 -0 -0 -0 -0
Wind_Speed
17 14 15 20 22 20 14 10 9 2 3 10 13 14 15 17 18 21 19 17 10 9 10 14 17 18 19 19 18 10 5 6 7 9 12 13 17 21 23 26 30 29 26 18
16 18 20 18 21 23 21 13 15 11 4 7 8 12 13 14 18 18 13 12 11 12 13 13 16 18 18 18 18 16 13 13 15 13 15 17 20 23 25 26 28 25 24 20
22 20 23 25 24 22 18 10 6 4 4 11 9 9 12 14 15 15 13 10 12 13 13 13 14 15 15 14 14 13 13 13 13 12 12 17 19 19 19 21 22 24 24 22
18 20 26 24 15 14 8 9 12 10 4 6 10 11 12 14 15 14 15 14 14 14 14 14 14 14 13 13 13 12 13 13 13 14 14 14 15 17 18 20 22 23 23 23
18 23 24 21 20 10 6 7 6 9 3 3 5 6 6 11 13 14 14 14 15 14 14 15 16 16 16 15 14 14 14 14 13 13 14 14 16 17 18 19 21 23 24 24
19 25 27 21 13 13 10 9 6 7 2 3 4 6 10 11 14 14 12 12 13 15 15 16 16 17 17 16 16 16 15 15 15 15 16 16 16 17 18 20 21 21 24 25
19 20 22 19 5 11 11 17 8 6 8 6 12 2 5 8 10 12 12 10 12 14 15 15 16 17 18 18 18 18 18 17 17 17 17 17 17 18 20 21 21 22 24 26
23 22 23 3 4 18 5 13 5 2 5 8 3 4 8 8 8 3 8 9 11 13 15 15 16 16 17 17 19 19 18 18 18 19 19 19 19 19 20 20 22 23 24 25
12 30 21 12 14 7 9 7 5 2 4 2 4 6 9 8 5 5 2 7 9 11 12 14 16 14 15 16 16 16 18 17 17 17 17 18 18 19 20 21 20 21 23 23
13 16 10 13 17 13 14 14 7 3 3 9 9 13 16 13 14 14 7 8 7 8 10 15 15 12 12 13 13 14 15 16 17 17 16 16 17 18 18 17 19 20 21 20
10 8 5 6 2 1 5 6 6 5 5 10 10 11 12 8 10 13 16 13 9 10 11 15 9 11 11 13 14 16 16 16 16 15 14 13 12 13 14 15 16 17 17 18
9 2 10 2 3 4 6 9 7 6 5 4 4 10 9 7 3 8 18 13 11 12 12 11 8 10 13 16 16 16 17 17 15 14 13 12 11 10 12 12 14 15 16 16
12 6 15 1 8 7 4 9 10 6 8 7 7 9 10 7 4 8 11 14 15 13 7 7 9 10 18 18 15 17 18 17 15 14 14 11 12 12 11 13 14 14 14 15
11 3 6 4 10 2 3 16 17 13 4 24 30 20 13 3 6 6 12 16 12 7 6 8 8 19 19 17 16 17 16 15 13 12 12 11 13 13 12 12 13 14 12 13
5 4 9 12 2 5 4 5 21 24 20 9 12 8 6 3 3 7 8 12 6 4 8 9 12 15 10 12 14 15 13 14 13 11 11 12 12 10 10 12 12 12 12 11
10 5 7 10 10 5 3 10 29 28 22 15 16 12 11 19 14 5 12 8 12 13 9 6 11 9 8 9 10 11 10 10 10 11 10 10 11 12 12 12 13 11 10 10
7 6 8 11 13 10 13 24 29 31 28 23 25 19 14 11 1 15 18 19 17 13 16 14 13 7 7 8 8 8 8 10 13 10 9 9 10 10 10 10 11 10 9 9
8 11 8 10 13 13 20 32 35 33 32 28 23 9 2 6 13 17 22 19 10 12 19 20 19 16 12 8 7 8 7 9 12 12 11 9 9 10 9 8 8 8 9 12
13 8 6 10 8 6 9 34 34 33 23 4 3 11 12 15 14 18 16 14 13 16 21 19 16 14 14 13 12 10 8 6 7 12 14 8 8 8 8 8 7 8 10 11
15 12 7 7 8 6 6 8 14 20 9 8 7 7 14 15 10 8 11 14 15 17 18 16 14 14 12 11 10 9 8 7 6 7 11 12 9 8 6 6 7 8 10 11
14 12 10 10 8 6 6 6 4 11 12 11 13 14 17 14 6 6 8 13 18 16 13 13 12 13 11 10 9 7 6 6 5 5 5 6 6 7 8 9 12 11 12 12
14 13 12 10 9 7 7 8 10 8 5 9 8 9 8 10 8 11 11 15 14 12 10 8 9 9 9 8 6 6 7 5 5 6 5 5 5 5 6 7 9 10 11 12
16 14 12 11 10 8 7 7 7 4 5 11 13 12 14 11 12 12 15 17 12 7 11 11 9 9 9 4 4 3 5 6 4 6 8 8 5 4 5 6 8 9 10 10
18 16 14 12 10 10 10 13 10 8 5 7 10 12 5 6 6 10 13 16 3 6 2 6 8 7 2 1 1 2 0 3 4 5 10 9 8 7 7 7 8 9 10 12
21 18 15 13 12 11 8 7 6 5 4 4 4 5 6 8 7 9 10 11 12 11 10 8 7 8 10 8 5 4 4 3 3 6 9 8 8 8 8 9 9 10 10 12
22 19 17 15 12 10 8 7 6 4 3 3 6 7 7 8 9 10 12 13 14 15 18 19 19 18 18 16 14 11 9 8 8 8 8 10 9 8 9 10 10 10 10 12
16 18 16 15 13 11 9 6 5 4 2 2 3 6 7 8 9 10 12 14 16 18 20 22 23 23 22 23 22 21 20 19 17 15 12 12 11 10 9 10 9 11 11 13
Wind_Direction
279 298 300 286 278 281 300 308 308 118 109 117 117 112 111 108 101 123 112 115 46 31 356 327 308 304 304 305 305 311 281 268 269 292 309 315 318 319 320 317 316 320 326 341
280 295 285 288 285 283 283 291 296 317 1 90 81 97 104 106 116 124 91 59 32 4 356 355 333 316 308 312 314 318 318 312 303 303 312 318 320 323 323 323 327 341 353 359
270 289 280 277 279 282 289 300 308 348 87 116 106 103 111 111 104 97 83 40 40 27 34 20 2 352 345 332 327 339 343 336 334 335 336 327 331 343 347 349 351 350 356 1
277 287 260 267 295 305 305 294 299 320 51 112 118 106 109 118 114 102 95 77 58 54 59 45 36 29 21 19 13 358 347 347 348 344 350 354 353 352 353 354 354 354 1 6
283 271 265 275 269 290 290 304 340 329 35 88 91 74 94 120 120 108 99 77 70 60 56 51 46 51 46 41 33 22 14 9 7 10 9 11 7 4 5 4 4 8 9 11
278 260 255 276 273 274 306 319 321 102 238 174 129 149 144 134 127 115 96 71 65 61 63 61 60 53 49 46 38 33 31 32 28 25 24 22 20 15 16 18 14 23 22 22
269 271 277 277 322 280 287 302 307 105 135 162 161 208 140 139 128 114 94 72 67 61 69 69 65 54 54 57 56 57 56 43 35 34 41 44 32 25 25 21 25 31 26 20
256 271 271 319 319 263 278 316 10 144 152 166 171 139 146 152 139 124 86 77 80 73 71 73 77 67 62 62 72 72 55 51 49 77 64 57 44 27 35 42 34 32 30 34
270 250 274 152 284 310 342 351 350 306 289 184 147 146 151 171 182 244 83 96 87 81 61 70 86 64 62 70 64 65 72 56 58 69 71 47 38 52 38 38 42 43 40 41
279 284 294 171 267 280 298 310 331 7 100 137 146 142 143 140 140 143 136 117 87 73 72 100 95 53 48 70 60 62 72 77 93 94 103 87 62 46 56 63 50 44 45 52
299 302 329 303 259 106 346 22 45 66 101 132 138 142 147 144 136 136 138 127 107 105 95 117 53 6 55 75 86 111 115 126 130 140 153 157 117 87 77 66 61 58 58 64
275 177 291 157 136 100 94 104 77 75 112 136 184 170 214 199 203 125 138 126 116 112 107 96 27 27 94 123 125 132 144 145 156 169 163 161 147 132 91 87 72 71 72 76
278 260 274 222 134 116 57 105 112 89 100 113 170 184 210 196 241 116 126 137 124 118 80 23 45 79 153 145 125 150 157 153 169 162 136 146 115 117 115 88 81 90 79 83
290 237 260 146 132 110 348 119 243 262 65 139 201 219 227 171 278 121 133 141 118 85 338 353 24 166 158 139 138 155 148 144 130 132 147 130 103 93 95 89 74 79 102 97
268 213 144 140 205 125 280 292 216 200 214 228 231 223 234 227 266 127 127 128 100 41 334 350 108 119 73 103 130 136 122 148 147 128 79 77 89 117 107 88 78 88 91 88
263 201 165 150 141 146 163 253 193 195 212 227 227 242 252 251 264 120 129 118 114 120 94 33 108 93 39 48 96 113 92 75 90 119 117 100 108 99 92 86 85 99 97 88
237 223 182 157 147 150 154 157 165 168 208 222 214 234 255 269 351 121 127 133 131 117 130 113 111 36 48 26 41 76 37 29 10 60 87 70 82 106 109 85 82 87 100 93
227 242 217 172 155 154 162 181 201 211 184 173 225 260 341 88 118 128 138 134 84 101 144 164 169 152 123 84 46 20 13 6 9 21 47 100 96 87 94 105 113 105 80 57
238 202 214 171 172 175 158 183 182 180 214 232 174 132 124 124 121 133 127 119 114 131 166 162 150 131 130 130 127 120 107 61 67 360 357 116 119 95 88 98 99 86 65 54
233 238 221 172 165 188 153 145 148 156 148 155 156 137 134 135 121 116 122 132 136 151 158 149 141 141 136 127 106 85 98 110 104 64 14 26 79 96 86 105 83 73 58 57
223 205 186 171 172 193 221 239 189 149 154 158 153 148 147 142 131 120 121 138 161 155 145 143 141 152 149 142 124 96 79 57 54 73 90 76 105 90 70 64 45 51 49 48
209 201 193 193 200 216 228 251 263 258 181 168 176 159 153 146 142 144 144 151 152 153 150 142 149 153 149 138 114 80 68 68 44 32 38 57 99 81 67 53 47 43 37 35
199 193 199 204 205 212 225 241 253 243 181 156 159 160 158 156 158 160 168 176 164 133 165 171 168 167 171 147 141 84 37 36 52 36 13 14 29 35 32 30 31 30 27 26
207 209 216 217 213 222 231 244 247 250 253 258 256 257 183 168 279 285 291 296 284 186 197 181 184 189 194 287 213 211 342 19 23 2 348 354 360 6 10 10 9 8 7 7
209 213 215 215 221 227 219 220 222 232 246 271 294 311 313 302 296 305 312 314 316 319 323 325 320 312 311 300 292 290 295 292 320 340 344 347 349 350 352 351 351 355 357 356
219 215 217 221 221 219 214 221 219 226 220 269 295 307 317 322 321 323 322 320 320 319 314 315 319 315 312 308 299 291 291 299 307 312 319 329 332 329 334 340 343 348 354 356
229 227 220 223 226 223 223 214 208 228 244 271 306 319 331 333 336 337 334 331 327 324 321 320 321 316 309 303 299 296 295 296 299 301 302 310 317 314 316 326 333 338 346 347